This demonstration page uses our WeatherBlox Daily Observations layout. Learn more.

Left ArrowRight Arrow

34.02893, -84.19858

Hourly Observations for May 10, 2022

Temp ( °F °C ) Dew Point ( °F °C ) Humidity (%) Winds ( mph kmh ) Pressure ( in mb ) Visibility ( mi km ) Precip ( " mm )
12:53 am 00:53 Clear 55 12.8 52 11.1 90 90 Calm 30.17 1022 10 16 0.00 0.00
1:53 am 01:53 Clear 53 11.7 50 10 89 89 Calm 30.17 1022 10 16 0.00 0.00
2:53 am 02:53 Clear 52 11.1 50 10 93 93 Calm 30.16 1021 10 16 0.00 0.00
3:53 am 03:53 Clear 52 11.1 50 10 93 93 Calm 30.16 1022 10 16 0.00 0.00
4:53 am 04:53 Clear 51 10.6 48 8.9 89 89 Calm 30.17 1022 10 16 0.00 0.00
5:53 am 05:53 Clear 52 11.1 50 10 93 93 Calm 30.19 1022 10 16 0.00 0.00
6:53 am 06:53 Sunny 53 11.7 50 10 89 89 VRB 3 6 30.22 1023 10 16 0.00 0.00
7:53 am 07:53 Sunny 57 13.9 51 10.6 81 81 VRB 5 7 30.24 1024 10 16 0.00 0.00
8:53 am 08:53 Sunny 61 16.1 50 10 67 67 VRB 5 7 30.27 1025 10 16 0.00 0.00
9:53 am 09:53 Sunny 65 18.3 46 7.8 51 51 VRB 7 11 30.29 1026 10 16 0.00 0.00
10:53 am 10:53 Sunny 67 19.4 41 5 39 39 VRB 6 9 30.30 1026 10 16 0.00 0.00
11:53 am 11:53 Sunny 71 21.7 40 4.4 32 32 undefined N/A 30.29 1026 10 16 0.00 0.00
12:53 pm 12:53 Sunny 72 22.2 42 5.6 34 34 SSW 6 9 30.27 1025 10 16 0.00 0.00
1:53 pm 13:53 Sunny 76 24.4 43 6.1 31 31 Calm 30.24 1024 10 16 0.00 0.00
2:53 pm 14:53 Sunny 79 26.1 47 8.3 32 32 NNW 6 9 30.21 1023 10 16 0.00 0.00
3:53 pm 15:53 Sunny 79 26.1 45 7.2 30 30 Calm 30.18 1022 10 16 0.00 0.00
4:53 pm 16:53 Sunny 81 27.2 48 8.9 32 32 WNW 7 11 30.15 1021 10 16 0.00 0.00
5:53 pm 17:53 Sunny 80 26.7 48 8.9 33 33 N 5 7 30.14 1021 10 16 0.00 0.00
6:53 pm 18:53 Sunny 80 26.7 49 9.4 34 34 NNW 5 7 30.13 1020 10 16 0.00 0.00
7:53 pm 19:53 Sunny 77 25 50 10 39 39 N 7 11 30.12 1020 10 16 0.00 0.00
8:53 pm 20:53 Clear 70 21.1 51 10.6 51 51 N 5 7 30.14 1021 10 16 0.00 0.00
9:53 pm 21:53 Clear 65 18.3 53 11.7 66 66 Calm 30.14 1021 10 16 0.00 0.00
10:53 pm 22:53 Clear 62 16.7 53 11.7 73 73 Calm 30.16 1021 10 16 0.00 0.00
11:53 pm 23:53 Clear 61 16.1 54 12.2 78 78 Calm 30.16 1022 10 16 0.00 0.00

Powered by AerisWeather